Regional Weather Roundup
Issued by NWS

Home | Current Version | Previous Version | Text Only | Print | Product List | Glossary On
Versions: 1 2 3 4 5 6 7 8 9 10 11 12 13 14 15 16 17 18 19 20 21 22 23 24 25 26 27 28 29 30 31 32 33 34 35 36 37 38 39 40 41 42 43 44 45 46 47 48 49 50
000
ASUS44 KFWD 300403
RWRTX
NORTH TEXAS HOURLY WEATHER ROUNDUP
NATIONAL WEATHER SERVICE FORT WORTH TX
1100 PM CDT WED JUL 29 2015

NOTE: "FAIR" INDICATES FEW OR NO CLOUDS BELOW 12,000 FEET WITH NO
SIGNIFICANT WEATHER AND/OR OBSTRUCTIONS TO VISIBILITY.

TXZ118-119-300500-
DALLAS/FORT WORTH METROPLEX

CITY           SKY/WX    TMP DP  RH WIND       PRES   REMARKS
DFW AIRPORT    CLEAR     87  64  46 SE5       30.03R
DALLAS LOVE    CLEAR     91  62  37 SE8       30.02R HX  91
FTW MEACHAM    CLEAR     90  62  39 SE7       30.02R HX  90
DAL-EXECUTIVE  CLEAR     85  64  49 SE5       30.03R
FTW-ALLIANCE   CLEAR     84  65  52 SE5       30.03R
FTW-NAS-JRB    FAIR      90  62  39 SE5       30.03R HX  90
ARLINGTON      CLEAR     82  66  58 SE3       30.03R
GRAND PRAIRIE  CLEAR     88  65  45 SE3       30.04R HX  90
ADDISON        CLEAR     91  63  38 SE7       30.05R HX  92
MESQUITE       CLEAR     85  61  44 CALM      30.03R
LANCASTER      CLEAR     83  64  51 CALM      30.03R
$$

TXZ091>094-102>105-117-120-121-131>134-300500-
NORTH CENTRAL TEXAS

CITY           SKY/WX    TMP DP  RH WIND       PRES   REMARKS
SHRMAN/DENISON CLEAR     87  64  46 SE6       30.06R
BOWIE          CLEAR     79  65  62 CALM      30.05R
DECATUR        CLEAR     85  60  42 SE3       30.05S
DENTON         CLEAR     84  69  60 SE5       30.03R
MCKINNEY       CLEAR     85  65  51 CALM      30.04R
ROCKWALL       CLEAR     86  63  46 SE6       30.03R
TERRELL        CLEAR     82  67  60 CALM      30.03R
WAXAHACHIE     CLEAR     84  67  56 SE3       30.04R
CLEBURNE       CLEAR     84  66  54 SE6       30.06R
$$

TXZ083>090-098>101-113>116-127>130-139>142-154-155-300500-
WESTERN NORTH TEXAS

CITY           SKY/WX    TMP DP  RH WIND       PRES   REMARKS
WICHITA FALLS  CLEAR     83  69  62 SE5       30.04R
WF-KICKAPOO    CLEAR     86  68  54 E6        30.06R
VERNON         MOCLDY    89  59  36 SE7       30.06S
ABILENE        CLEAR     85  62  46 SE7       30.07R
ABILENE-DYESS  CLEAR     85  65  50 SE7       30.06R
BRECKENRIDGE   CLEAR     86  63  45 SE7       30.05R
MINERAL WELLS  CLEAR     84  63  49 SE7       30.02R
STEPHENVILLE   CLEAR     83  61  47 CALM      30.09R
COMANCHE       CLEAR     82  63  51 SE5       30.07R
COLEMAN        CLEAR     83  66  57 CALM      30.07R
BRADY          CLEAR     88  61  40 SE5       30.07R
$$

TXZ143>147-156>162-174-175-300500-
CENTRAL TEXAS

CITY           SKY/WX    TMP DP  RH WIND       PRES   REMARKS
WACO           CLEAR     89  66  46 SE9       30.02R HX  91
WACO-MCGREGOR  CLEAR     84  61  45 S6        30.04R
CORSICANA      CLEAR     87  70  56 SE3       30.03R HX  92
MEXIA          CLEAR     82  67  60 SE12      30.03R
HEARNE         CLEAR     81  71  72 CALM      30.03R
TEMPLE         CLEAR     84  63  48 SE7       30.04R
KILLEEN        CLEAR     84  65  52 S6        30.04R
KILLEEN-SKYLRK CLEAR     88  64  45 SE5       30.04R
FORT HOOD      CLEAR     86  66  51 SE7       30.03R
HAMILTON       CLEAR     85  61  43 SE8       30.07R
LAMPASAS       CLEAR     85  65  52 CALM      30.05R
$$

TXZ095>097-106>112-122>126-135>138-148>153-164>167-300500-
EAST TEXAS

CITY           SKY/WX    TMP DP  RH WIND       PRES   REMARKS
PARIS          CLEAR     84  70  61 CALM      30.04R
SULPHUR SPRNGS CLEAR     85  70  61 CALM      30.06R
GILMER         CLEAR     79  70  74 CALM      30.03R
MINEOLA        CLEAR     81  73  78 CALM      30.04R
TYLER          CLEAR     86  69  56 CALM      30.03R HX  90
LONGVIEW       CLEAR     84  71  65 CALM      30.02R
MARSHALL       CLEAR     82  74  76 CALM      30.05R
ATHENS         CLEAR     79  70  73 CALM      30.02R
PALESTINE      CLEAR     80  72  75 CALM      30.04R
JACKSONVILLE   CLEAR     88  62  41 CALM      30.06R
HENDERSON      CLEAR     79  72  77 CALM      30.04R
CENTER         FAIR      82  72  71 CALM      30.02R
NACOGDOCHES    CLEAR     79  70  73 CALM      30.02S
LUFKIN         CLEAR     80  73  79 CALM      30.03R
$$

SUPPLEMENTAL OBSERVATIONS (CENTRAL)

CITY           SKY/WX    TMP DP  RH WIND       PRES   REMARKS
$$

SUPPLEMENTAL OBSERVATIONS (WEST)

CITY           SKY/WX    TMP DP  RH WIND       PRES   REMARKS
$$

SUPPLEMENTAL OBSERVATIONS (EAST)

CITY           SKY/WX    TMP DP  RH WIND       PRES   REMARKS
$$

SUPPLEMENTAL OBSERVATIONS ARE A COLLECTION OF AUTOMATED INSTRUMENTS
THAT ARE MAINTAINED BY A VARIETY OF FEDERAL AND STATE AGENCIES.
CERTAIN ELEMENTS...SUCH AS HUMIDITY VALUES AND SUSTAINED WIND
SPEEDS...MAY BE APPROXIMATED.




USA.gov is the U.S. government's official web portal to all federal, state and local government web resources and services.